• In Latvia
  • List of Countries
  • For 7 days
  • Water Temperature
  • Satellite Maps
  • Weather Map
  • Weather Widgets
  • user-avatar
    Login

    Hourly Weather Ape

    Today, 23 July, Monday

    Time Temperature Precipitation Wind Pressure Humidity
    00:00 +20°C° 0 mm 1 mps 750 mmHg 89%
    01:00 +19°C° 0 mm 1 mps 750 mmHg 90%
    02:00 +19°C° 0 mm 1 mps 750 mmHg 91%
    03:00 +19°C° 0 mm 1 mps 750 mmHg 92%
    04:00 +19°C° 0 mm 1 mps 750 mmHg 92%
    05:00 +19°C° 0 mm 1 mps 750 mmHg 93%
    06:00 +20°C° 0 mm 1 mps 751 mmHg 90%
    07:00 +21°C° 0 mm 1 mps 751 mmHg 87%
    08:00 +22°C° 0 mm 1 mps 751 mmHg 84%
    09:00 +23°C° 0.2 mm 1 mps 751 mmHg 82%
    10:00 +24°C° 0.2 mm 1 mps 751 mmHg 80%
    11:00 +25°C° 0.2 mm 2 mps 751 mmHg 78%
    12:00 +26°C° 0.2 mm 2 mps 751 mmHg 72%
    13:00 +27°C° 0.2 mm 2 mps 750 mmHg 66%
    14:00 +28°C° 0.2 mm 2 mps 750 mmHg 61%
    15:00 +28°C° 0.2 mm 3 mps 750 mmHg 62%
    16:00 +27°C° 0.2 mm 3 mps 750 mmHg 64%
    17:00 +27°C° 0.2 mm 3 mps 750 mmHg 66%
    18:00 +26°C° 0.1 mm 3 mps 750 mmHg 71%
    19:00 +24°C° 0.1 mm 2 mps 750 mmHg 77%
    20:00 +23°C° 0.1 mm 2 mps 750 mmHg 83%
    21:00 +21°C° 0 mm 2 mps 751 mmHg 86%
    22:00 +20°C° 0 mm 2 mps 751 mmHg 88%
    23:00 +19°C° 0 mm 2 mps 751 mmHg 91%

    Tomorrow, 24 July, Tuesday

    Time Temperature Precipitation Wind Pressure Humidity
    00:00 +20°C° 0.3 mm 1 mps 751 mmHg 93%
    01:00 +20°C° 0.3 mm 1 mps 751 mmHg 94%
    02:00 +20°C° 0.3 mm 1 mps 751 mmHg 96%
    03:00 +20°C° 0.3 mm 1 mps 751 mmHg 97%
    04:00 +20°C° 0.3 mm 1 mps 751 mmHg 97%
    05:00 +19°C° 0.3 mm 1 mps 751 mmHg 98%
    06:00 +21°C° 0.2 mm 1 mps 751 mmHg 95%
    07:00 +22°C° 0.2 mm 1 mps 752 mmHg 92%
    08:00 +23°C° 0.2 mm 2 mps 752 mmHg 89%
    09:00 +24°C° 0.1 mm 2 mps 752 mmHg 82%
    10:00 +25°C° 0.1 mm 2 mps 752 mmHg 75%
    11:00 +27°C° 0.1 mm 2 mps 752 mmHg 68%
    12:00 +27°C° 0.8 mm 2 mps 751 mmHg 67%
    13:00 +28°C° 0.8 mm 2 mps 751 mmHg 66%
    14:00 +28°C° 0.8 mm 2 mps 751 mmHg 65%
    15:00 +28°C° 0.9 mm 2 mps 751 mmHg 68%
    16:00 +27°C° 0.9 mm 2 mps 751 mmHg 72%
    17:00 +27°C° 0.9 mm 2 mps 751 mmHg 75%
    18:00 +26°C° 0.2 mm 2 mps 751 mmHg 79%
    19:00 +24°C° 0.2 mm 2 mps 751 mmHg 84%
    20:00 +23°C° 0.2 mm 2 mps 751 mmHg 88%
    21:00 +21°C° 0 mm 2 mps 752 mmHg 90%
    22:00 +21°C° 0 mm 1 mps 752 mmHg 93%
    23:00 +20°C° 0 mm 1 mps 752 mmHg 95%

    Day after tomorrow, 25 July, Wednesday

    Time Temperature Precipitation Wind Pressure Humidity
    00:00 +19°C° 0 mm 1 mps 752 mmHg 96%
    01:00 +19°C° 0 mm 1 mps 752 mmHg 97%
    02:00 +19°C° 0 mm 1 mps 752 mmHg 97%
    03:00 +19°C° 0 mm 1 mps 752 mmHg 98%
    04:00 +19°C° 0 mm 1 mps 752 mmHg 98%
    05:00 +19°C° 0 mm 1 mps 753 mmHg 98%
    06:00 +19°C° 0 mm 2 mps 753 mmHg 94%
    07:00 +21°C° 0 mm 2 mps 753 mmHg 89%
    08:00 +23°C° 0 mm 2 mps 753 mmHg 84%
    09:00 +25°C° 0.1 mm 2 mps 753 mmHg 78%
    10:00 +26°C° 0.1 mm 2 mps 753 mmHg 72%
    11:00 +27°C° 0.1 mm 2 mps 753 mmHg 66%
    12:00 +28°C° 0.4 mm 2 mps 753 mmHg 65%
    13:00 +28°C° 0.4 mm 2 mps 753 mmHg 64%
    14:00 +29°C° 0.4 mm 2 mps 752 mmHg 63%
    15:00 +28°C° 0.6 mm 2 mps 752 mmHg 67%
    16:00 +28°C° 0.6 mm 2 mps 752 mmHg 70%
    17:00 +28°C° 0.6 mm 2 mps 752 mmHg 73%
    18:00 +27°C° 0.6 mm 2 mps 753 mmHg 79%
    19:00 +25°C° 0.6 mm 2 mps 753 mmHg 84%
    20:00 +24°C° 0.6 mm 1 mps 753 mmHg 90%
    21:00 +23°C° 0.1 mm 1 mps 753 mmHg 92%
    22:00 +23°C° 0.1 mm 1 mps 753 mmHg 94%
    23:00 +22°C° 0.1 mm 1 mps 753 mmHg 96%

    26 July, Thursday

    Time Temperature Precipitation Wind Pressure Humidity
    00:00 +22°C° 0.4 mm 1 mps 753 mmHg 96%
    01:00 +21°C° 0.4 mm 1 mps 753 mmHg 97%
    02:00 +21°C° 0.4 mm 1 mps 753 mmHg 97%
    03:00 +21°C° 0.5 mm 1 mps 754 mmHg 98%
    04:00 +21°C° 0.5 mm 1 mps 754 mmHg 98%
    05:00 +21°C° 0.5 mm 1 mps 754 mmHg 98%
    06:00 +22°C° 0 mm 1 mps 754 mmHg 95%
    07:00 +23°C° 0 mm 2 mps 754 mmHg 91%
    08:00 +24°C° 0 mm 2 mps 754 mmHg 88%
    09:00 +26°C° 0 mm 2 mps 754 mmHg 77%
    10:00 +27°C° 0 mm 2 mps 754 mmHg 66%
    11:00 +29°C° 0 mm 2 mps 754 mmHg 56%
    12:00 +29°C° 0 mm 2 mps 754 mmHg 54%
    13:00 +30°C° 0 mm 3 mps 754 mmHg 52%
    14:00 +30°C° 0 mm 3 mps 754 mmHg 50%
    15:00 +30°C° 0.1 mm 3 mps 754 mmHg 53%
    16:00 +30°C° 0.1 mm 3 mps 754 mmHg 57%
    17:00 +29°C° 0.1 mm 3 mps 754 mmHg 60%
    18:00 +28°C° 0.3 mm 2 mps 754 mmHg 69%
    19:00 +26°C° 0.3 mm 2 mps 754 mmHg 78%
    20:00 +24°C° 0.3 mm 2 mps 754 mmHg 87%
    21:00 +24°C° 0 mm 2 mps 754 mmHg 89%
    22:00 +23°C° 0 mm 2 mps 754 mmHg 91%
    23:00 +21°C° 0 mm 2 mps 754 mmHg 92%

    27 July, Friday

    Time Temperature Precipitation Wind Pressure Humidity
    00:00 +21°C° 0 mm 2 mps 754 mmHg 94%
    01:00 +20°C° 0 mm 2 mps 754 mmHg 95%
    02:00 +20°C° 0 mm 2 mps 754 mmHg 96%
    03:00 +20°C° 0 mm 2 mps 754 mmHg 96%
    04:00 +20°C° 0 mm 2 mps 754 mmHg 96%
    05:00 +19°C° 0 mm 2 mps 755 mmHg 96%
    06:00 +21°C° 0 mm 2 mps 755 mmHg 91%
    07:00 +22°C° 0 mm 3 mps 755 mmHg 86%
    08:00 +24°C° 0 mm 3 mps 755 mmHg 81%
    09:00 +25°C° 0.3 mm 3 mps 755 mmHg 80%
    10:00 +26°C° 0.3 mm 3 mps 755 mmHg 78%
    11:00 +27°C° 0.3 mm 4 mps 755 mmHg 77%
    12:00 +27°C° 1 mm 3 mps 755 mmHg 76%
    13:00 +28°C° 1 mm 3 mps 755 mmHg 75%
    14:00 +28°C° 1 mm 3 mps 755 mmHg 74%
    15:00 +28°C° 0.8 mm 3 mps 755 mmHg 74%
    16:00 +29°C° 0.8 mm 3 mps 755 mmHg 75%
    17:00 +29°C° 0.8 mm 3 mps 755 mmHg 75%
    18:00 +28°C° 0.3 mm 3 mps 755 mmHg 78%
    19:00 +26°C° 0.3 mm 3 mps 755 mmHg 81%
    20:00 +25°C° 0.3 mm 3 mps 755 mmHg 84%
    21:00 +25°C° 0.1 mm 3 mps 755 mmHg 85%
    22:00 +24°C° 0.1 mm 2 mps 755 mmHg 86%
    23:00 +23°C° 0.1 mm 2 mps 755 mmHg 87%

    28 July, Saturday

    Time Temperature Precipitation Wind Pressure Humidity
    00:00 +21°C° 0 mm 2 mps 756 mmHg 89%
    01:00 +21°C° 0 mm 2 mps 756 mmHg 91%
    02:00 +20°C° 0 mm 2 mps 756 mmHg 93%
    03:00 +20°C° 0 mm 3 mps 756 mmHg 93%
    04:00 +20°C° 0 mm 3 mps 756 mmHg 94%
    05:00 +20°C° 0 mm 3 mps 756 mmHg 95%
    06:00 +22°C° 0 mm 3 mps 756 mmHg 89%
    07:00 +24°C° 0 mm 3 mps 756 mmHg 84%
    08:00 +26°C° 0 mm 3 mps 757 mmHg 79%
    09:00 +27°C° 0 mm 4 mps 757 mmHg 70%
    10:00 +29°C° 0 mm 4 mps 757 mmHg 61%
    11:00 +32°C° 0 mm 4 mps 757 mmHg 52%
    12:00 +32°C° 0 mm 4 mps 757 mmHg 49%
    13:00 +33°C° 0 mm 4 mps 757 mmHg 46%
    14:00 +34°C° 0 mm 4 mps 757 mmHg 43%
    15:00 +33°C° 0 mm 4 mps 757 mmHg 45%
    16:00 +33°C° 0 mm 3 mps 757 mmHg 47%
    17:00 +33°C° 0 mm 3 mps 757 mmHg 49%
    18:00 +30°C° 0 mm 3 mps 757 mmHg 58%
    19:00 +28°C° 0 mm 2 mps 757 mmHg 66%
    20:00 +26°C° 0 mm 2 mps 757 mmHg 74%
    21:00 +25°C° 0 mm 2 mps 757 mmHg 76%
    22:00 +24°C° 0 mm 2 mps 758 mmHg 78%
    23:00 +23°C° 0 mm 2 mps 758 mmHg 80%
    Show more